Weather History for North Bend, OR

Change the Weather History Date:

Thursday, February 14, 2013

  Actual Average Record
Temperature  
Mean Temperature 47 °F 46 °F  
Max Temperature 55 °F 53 °F 76 °F (1943)
Min Temperature 39 °F 40 °F 21 °F (1903)
Degree Days  
Heating Degree Days 18 19  
Month to date heating degree days 257 266  
Since 1 July heating degree days 2764 2921  
Cooling Degree Days 0 0  
Month to date cooling degree days 0 0  
Year to date cooling degree days 0 0  
Moisture  
Dew Point 45 °F    
Average Humidity 91    
Maximum Humidity 100    
Minimum Humidity 77    
Precipitation  
Precipitation 0.00 in 0.26 in 2.03 in (1938)
Month to date precipitation 1.21 3.82  
Year to date precipitation 5.16 14.01  
Sea Level Pressure  
Sea Level Pressure 30.49 in    
Wind  
Wind Speed 6 mph (North)    
Max Wind Speed 20 mph    
Max Gust Speed 25 mph    
Visibility 9 miles    
Events      
T = Trace of Precipitation, MM = Missing Value Source: NWS Daily Summary

Daily Weather History Graph

Daily Weather History Graph

Search for Another Location

Airport:

Trip Planner

Search our weather history database for the weather conditions in past years. The results will help you decide how hot, cold, wet, or windy it might be!

Date:

Astronomy

Feb. 14, 2013 Rise Set
Actual Time 7:16 AM PST 5:46 PM PST
Civil Twilight 6:46 AM PST 6:16 PM PST
Nautical Twilight 6:13 AM PST 6:49 PM PST
Astronomical Twilight 5:40 AM PST 7:22 PM PST
Moon 9:11 AM PST (2/14) 11:06 PM PST (2/14)
Length of Visible Light 11h 29m
Length of Day
10h 30m
Waxing Crescent, 22% of the Moon is Illuminated
Feb 14
Waxing Crescent
Feb 17
First Quarter
Feb 25
Full
Mar 4
Last Quarter
Mar 11
New

Hourly Weather History & Observations

Time (PST) Temp. Windchill Dew Point Humidity Pressure Visibility Wind Dir Wind Speed Gust Speed Precip Events Conditions
12:15 AM 48.2 °F - 46.4 °F 93% 30.52 in 10.0 mi Calm Calm - N/A   Overcast
12:35 AM 46.4 °F - 46.4 °F 100% 30.53 in 10.0 mi Calm Calm - N/A   Overcast
12:55 AM 46.4 °F - 46.4 °F 100% 30.52 in 10.0 mi Calm Calm - N/A   Overcast
1:15 AM 46.4 °F - 44.6 °F 93% 30.52 in 10.0 mi Calm Calm - N/A   Overcast
1:35 AM 46.4 °F - 44.6 °F 93% 30.52 in 10.0 mi Calm Calm - N/A   Overcast
2:15 AM 46.4 °F - 44.6 °F 93% 30.52 in 10.0 mi Calm Calm - N/A   Overcast
2:35 AM 46.4 °F - 46.4 °F 100% 30.52 in 10.0 mi Calm Calm - N/A   Overcast
2:55 AM 46.4 °F - 46.4 °F 100% 30.52 in 10.0 mi Calm Calm - N/A   Mostly Cloudy
3:15 AM 46.4 °F - 46.4 °F 100% 30.52 in 10.0 mi Calm Calm - N/A   Partly Cloudy
3:35 AM 44.6 °F - 42.8 °F 93% 30.51 in 7.0 mi Calm Calm - N/A   Clear
3:55 AM 44.6 °F 43.1 °F 44.6 °F 100% 30.51 in 0.8 mi NE 3.5 mph - N/A   Overcast
4:15 AM 44.6 °F 41.4 °F 44.6 °F 100% 30.52 in 10.0 mi North 5.8 mph - N/A   Scattered Clouds
4:35 AM 42.8 °F 40.1 °F 42.8 °F 100% 30.53 in 8.0 mi ENE 4.6 mph - N/A   Clear
4:55 AM 42.8 °F - 42.8 °F 100% 30.53 in 1.0 mi Calm Calm - N/A   Mostly Cloudy
5:15 AM 39.2 °F 37.0 °F 39.2 °F 100% 30.53 in 7.0 mi SSE 3.5 mph - N/A   Partly Cloudy
5:35 AM 42.8 °F 39.3 °F 42.8 °F 100% 30.52 in 10.0 mi SE 5.8 mph - N/A   Clear
5:55 AM 41.0 °F - 39.2 °F 93% 30.52 in 1.8 mi Calm Calm - N/A   Mostly Cloudy
6:15 AM 42.8 °F - 41.0 °F 93% 30.52 in 0.2 mi Calm Calm - N/A   Overcast
6:35 AM 41.0 °F - 39.2 °F 93% 30.52 in 0.8 mi Calm Calm - N/A   Overcast
6:55 AM 39.2 °F - 39.2 °F 100% 30.52 in 5.0 mi Calm Calm - N/A   Partly Cloudy
7:15 AM 41.0 °F 39.0 °F 41.0 °F 100% 30.53 in 3.0 mi NNW 3.5 mph - N/A   Clear
7:35 AM 42.8 °F - 41.0 °F 93% 30.52 in 10.0 mi Calm Calm - N/A   Clear
7:55 AM 39.2 °F - 39.2 °F 100% 30.53 in 0.8 mi Calm Calm - N/A   Unknown
8:15 AM 42.8 °F - 41.0 °F 93% 30.53 in 9.0 mi Calm Calm - N/A   Clear
8:35 AM 42.8 °F - 42.8 °F 100% 30.54 in 10.0 mi Calm Calm - N/A   Clear
8:55 AM 44.6 °F 43.1 °F 44.6 °F 100% 30.54 in 10.0 mi ESE 3.5 mph - N/A   Clear
9:15 AM 46.4 °F 44.3 °F 44.6 °F 93% 30.54 in 10.0 mi SE 4.6 mph - N/A   Clear
9:35 AM 48.2 °F - 46.4 °F 93% 30.54 in 10.0 mi ESE 5.8 mph - N/A   Clear
9:55 AM 48.2 °F - 46.4 °F 93% 30.54 in 10.0 mi Calm Calm - N/A   Clear
10:15 AM 51.8 °F - 46.4 °F 82% 30.54 in 10.0 mi East 5.8 mph - N/A   Clear
10:35 AM 53.6 °F - 46.4 °F 77% 30.54 in 10.0 mi NNE 4.6 mph - N/A   Clear
10:55 AM 51.8 °F - 44.6 °F 76% 30.54 in 10.0 mi Calm Calm - N/A   Clear
11:15 AM 53.6 °F - 46.4 °F 77% 30.53 in 10.0 mi NNW 5.8 mph - N/A   Clear
11:35 AM 53.6 °F - 46.4 °F 77% 30.53 in 10.0 mi NW 5.8 mph - N/A   Clear
11:55 AM 53.6 °F - 48.2 °F 82% 30.53 in 10.0 mi NNW 9.2 mph - N/A   Clear
12:15 PM 53.6 °F - 48.2 °F 82% 30.52 in 10.0 mi NNW 9.2 mph - N/A   Clear
12:35 PM 51.8 °F - 48.2 °F 88% 30.51 in 10.0 mi NNW 13.8 mph - N/A   Clear
12:55 PM 51.8 °F - 46.4 °F 82% 30.50 in 10.0 mi North 16.1 mph - N/A   Clear
1:15 PM 51.8 °F - 46.4 °F 82% 30.50 in 10.0 mi North 15.0 mph - N/A   Clear
1:35 PM 53.6 °F - 48.2 °F 82% 30.49 in 10.0 mi North 16.1 mph - N/A   Clear
1:55 PM 53.6 °F - 48.2 °F 82% 30.48 in 10.0 mi North 16.1 mph - N/A   Clear
2:15 PM 53.6 °F - 48.2 °F 82% 30.47 in 10.0 mi North 19.6 mph - N/A   Clear
2:35 PM 53.6 °F - 46.4 °F 77% 30.47 in 10.0 mi North 18.4 mph - N/A   Clear
2:55 PM 53.6 °F - 46.4 °F 77% 30.46 in 10.0 mi North 19.6 mph 25.3 mph N/A   Clear
3:15 PM 55.4 °F - 46.4 °F 72% 30.46 in 10.0 mi North 19.6 mph 23.0 mph N/A   Clear
3:35 PM 53.6 °F - 46.4 °F 77% 30.46 in 10.0 mi North 19.6 mph - N/A   Clear
3:55 PM 53.6 °F - 46.4 °F 77% 30.45 in 10.0 mi North 18.4 mph - N/A   Clear
4:15 PM 53.6 °F - 46.4 °F 77% 30.45 in 10.0 mi North 17.3 mph - N/A   Clear
4:35 PM 53.6 °F - 46.4 °F 77% 30.45 in 10.0 mi North 20.7 mph - N/A   Clear
4:55 PM 51.8 °F - 46.4 °F 82% 30.45 in 10.0 mi North 19.6 mph - N/A   Clear
5:15 PM 51.8 °F - 46.4 °F 82% 30.45 in 10.0 mi North 18.4 mph - N/A   Clear
5:35 PM 51.8 °F - 46.4 °F 82% 30.45 in 10.0 mi North 16.1 mph 19.6 mph N/A   Clear
5:55 PM 50.0 °F - 46.4 °F 87% 30.45 in 9.0 mi North 13.8 mph - N/A   Clear
6:15 PM 50.0 °F - 46.4 °F 87% 30.45 in 9.0 mi North 13.8 mph - N/A   Clear
6:35 PM 48.2 °F - 46.4 °F 93% 30.45 in 10.0 mi North 11.5 mph - N/A   Clear
6:55 PM 48.2 °F - 46.4 °F 93% 30.45 in 8.0 mi North 11.5 mph - N/A   Clear
7:15 PM 48.2 °F - 46.4 °F 93% 30.45 in 10.0 mi North 3.5 mph - N/A   Clear
7:35 PM 48.2 °F - 46.4 °F 93% 30.44 in 10.0 mi Calm Calm - N/A   Clear
7:55 PM 48.2 °F - 46.4 °F 93% 30.44 in 10.0 mi NNE 4.6 mph - N/A   Clear
8:15 PM 48.2 °F - 46.4 °F 93% 30.43 in 10.0 mi North 5.8 mph - N/A   Clear
8:35 PM 46.4 °F 42.9 °F 46.4 °F 100% 30.43 in 10.0 mi NNE 6.9 mph - N/A   Clear
8:55 PM 46.4 °F - 46.4 °F 100% 30.43 in 10.0 mi Calm Calm - N/A   Clear
9:15 PM 46.4 °F - 46.4 °F 100% 30.43 in 10.0 mi Calm Calm - N/A   Clear
9:35 PM 46.4 °F 44.3 °F 46.4 °F 100% 30.43 in 10.0 mi North 4.6 mph - N/A   Clear
9:55 PM 48.2 °F - 46.4 °F 93% 30.43 in 10.0 mi NNW 4.6 mph - N/A   Clear
10:15 PM 44.6 °F - 42.8 °F 93% 30.43 in 10.0 mi Calm Calm - N/A   Clear
10:35 PM 44.6 °F 43.1 °F 44.6 °F 100% 30.43 in 10.0 mi North 3.5 mph - N/A   Clear
10:55 PM 44.6 °F 43.1 °F 44.6 °F 100% 30.43 in 8.0 mi NNE 3.5 mph - N/A   Clear
11:15 PM 44.6 °F - 44.6 °F 100% 30.43 in 10.0 mi Calm Calm - N/A   Clear
11:35 PM 44.6 °F 41.4 °F 44.6 °F 100% 30.42 in 10.0 mi North 5.8 mph - N/A   Clear
11:55 PM 44.6 °F 42.2 °F 44.6 °F 100% 30.41 in 10.0 mi NNE 4.6 mph - N/A   Clear